N3MFL Weather Reports


Display with metric or nautical units.
time (UTC)temp
F
wind
direction
speed
MPH
gust
MPH
rain 1hr
in
rain 24hr
in
rain mn
in
humidity
%
barometer
mb
20260505034339 51 214 1.0 1.0 0.00 0.00 0.00 83 1012.8
20260505033837 51 228 1.0 2.0 0.00 0.00 0.00 82 1012.7
20260505033333 51 180 1.0 1.0 0.00 0.00 0.00 82 1012.7
20260505032832 51 203 1.0 1.0 0.00 0.00 0.00 82 1012.5
20260505032328 51 189 0.0 0.0 0.00 0.00 0.00 82 1012.5
20260505031825 51 219 1.0 1.0 0.00 0.00 0.00 81 1012.5
20260505031321 51 202 1.0 1.0 0.00 0.00 0.00 81 1012.8
20260505030819 51 214 1.0 1.0 0.00 0.00 0.00 80 1012.7
20260505030315 51 169 1.0 1.0 0.00 0.00 0.00 80 1012.8
20260505025810 52 203 0.0 1.0 0.00 0.00 0.00 79 1012.7
20260505025308 52 189 1.0 1.0 0.00 0.00 0.00 79 1012.7
20260505024807 52 211 1.0 1.0 0.00 0.00 0.00 79 1012.8
20260505024304 52 185 0.0 1.0 0.00 0.00 0.00 79 1013.0
20260505023801 52 206 1.0 1.0 0.00 0.00 0.00 78 1012.8
20260505023258 52 218 1.0 1.0 0.00 0.00 0.00 78 1012.7
20260505022755 52 222 2.0 2.0 0.00 0.00 0.00 77 1012.9
20260505022252 52 184 0.0 1.0 0.00 0.00 0.00 77 1012.9
20260505021749 52 196 2.0 3.0 0.00 0.00 0.00 77 1013.0
20260505021246 53 195 1.0 1.0 0.00 0.00 0.00 76 1012.8
20260505020741 53 173 1.0 1.0 0.00 0.00 0.00 76 1013.1
20260505020237 53 220 1.0 2.0 0.00 0.00 0.00 76 1012.7
20260505015734 53 219 2.0 2.0 0.00 0.00 0.00 75 1012.9
20260505015231 53 203 0.0 1.0 0.00 0.00 0.00 74 1012.9
20260505014728 53 208 1.0 1.0 0.00 0.00 0.00 74 1012.9
20260505014225 54 239 1.0 2.0 0.00 0.00 0.00 73 1012.9
20260505013722 54 239 2.0 3.0 0.00 0.00 0.00 72 1012.8
20260505013219 54 241 1.0 1.0 0.00 0.00 0.00 72 1012.8
20260505012717 54 205 2.0 2.0 0.00 0.00 0.00 72 1012.6
20260505012214 55 197 2.0 3.0 0.00 0.00 0.00 71 1012.7
20260505011710 55 221 3.0 4.0 0.00 0.00 0.00 71 1012.6
20260505011208 55 230 2.0 3.0 0.00 0.00 0.00 70 1012.2
20260505010702 55 197 1.0 2.0 0.00 0.00 0.00 70 1012.4
20260505010200 55 183 1.0 2.0 0.00 0.00 0.00 69 1012.3
20260505005655 55 233 1.0 2.0 0.00 0.00 0.00 69 1012.0
20260505005153 55 243 2.0 3.0 0.00 0.00 0.00 68 1011.9
20260505004650 56 242 2.0 2.0 0.00 0.00 0.00 67 1011.7
20260505004146 56 247 3.0 4.0 0.00 0.00 0.00 66 1011.9
20260505003644 56 189 2.0 2.0 0.00 0.00 0.00 65 1011.8
20260505003141 56 173 1.0 1.0 0.00 0.00 0.00 65 1011.6
20260505002637 56 243 1.0 2.0 0.00 0.00 0.00 64 1011.5
20260505002136 56 192 3.0 4.0 0.00 0.00 0.00 62 1011.3
20260505001632 57 168 2.0 3.0 0.00 0.00 0.00 61 1011.2
20260505001130 57 210 2.0 3.0 0.00 0.00 0.00 60 1011.1
20260505000627 57 241 2.0 2.0 0.00 0.00 0.00 59 1011.2
20260505000125 57 180 2.0 2.0 0.00 0.00 0.00 59 1011.1
20260504235621 57 246 2.0 3.0 0.00 0.00 0.00 58 1010.9
20260504235117 58 215 2.0 2.0 0.00 0.00 0.00 58 1011.0
20260504234615 58 212 2.0 2.0 0.00 0.00 0.00 58 1010.8
20260504234112 58 241 2.0 3.0 0.00 0.00 0.00 58 1010.8
20260504233607 58 195 1.0 2.0 0.00 0.00 0.00 57 1010.8
20260504233104 59 182 0.0 0.0 0.00 0.00 0.00 57 1010.9
20260504232601 59 182 1.0 1.0 0.00 0.00 0.00 57 1010.8
20260504232058 59 221 2.0 2.0 0.00 0.00 0.00 54 1010.8
20260504231555 60 212 3.0 4.0 0.00 0.00 0.00 54 1010.5
20260504231051 60 253 3.0 3.0 0.00 0.00 0.00 53 1010.4
20260504230547 60 213 3.0 4.0 0.00 0.00 0.00 54 1010.5
20260504230046 60 172 3.0 3.0 0.00 0.00 0.00 54 1010.3
20260504225543 60 182 4.0 6.0 0.00 0.00 0.00 53 1010.2
20260504225040 61 212 2.0 3.0 0.00 0.00 0.00 52 1010.3
20260504224537 61 203 4.0 6.0 0.00 0.00 0.00 51 1010.1
20260504224034 62 208 2.0 3.0 0.00 0.00 0.00 50 1010.2
20260504223531 62 242 2.0 3.0 0.00 0.00 0.00 49 1010.0
20260504223026 63 203 2.0 3.0 0.00 0.00 0.00 49 1009.9
20260504222523 63 251 3.0 4.0 0.00 0.00 0.00 49 1009.9
20260504222021 64 165 2.0 2.0 0.00 0.00 0.00 48 1009.9
20260504221518 66 244 5.0 6.0 0.00 0.00 0.00 42 1009.9
20260504221015 66 233 3.0 4.0 0.00 0.00 0.00 42 1009.9
20260504220511 67 208 5.0 8.0 0.00 0.00 0.00 41 1009.8
20260504220008 67 242 3.0 4.0 0.00 0.00 0.00 41 1009.7
20260504215505 67 240 4.0 6.0 0.00 0.00 0.00 41 1009.7
20260504215002 67 237 3.0 4.0 0.00 0.00 0.00 42 1009.9
20260504214458 66 221 3.0 3.0 0.00 0.00 0.00 42 1009.7
20260504213954 67 207 5.0 6.0 0.00 0.00 0.00 45 1009.7
20260504213450 67 236 2.0 3.0 0.00 0.00 0.00 41 1009.6
20260504212948 68 243 9.0 13.0 0.00 0.00 0.00 40 1009.5
20260504212444 67 217 4.0 4.0 0.00 0.00 0.00 41 1009.6
20260504211942 67 231 5.0 7.0 0.00 0.00 0.00 41 1009.7
20260504211438 68 251 6.0 7.0 0.00 0.00 0.00 40 1009.5
20260504210936 68 266 5.0 6.0 0.00 0.00 0.00 41 1009.7
20260504210432 67 231 6.0 7.0 0.00 0.00 0.00 40 1009.7
20260504205929 69 241 4.0 4.0 0.00 0.00 0.00 40 1009.4
20260504205427 68 229 2.0 3.0 0.00 0.00 0.00 40 1009.3
20260504204925 68 248 5.0 7.0 0.00 0.00 0.00 40 1009.4
20260504204423 67 206 6.0 8.0 0.00 0.00 0.00 39 1009.5
20260504203922 68 207 4.0 6.0 0.00 0.00 0.00 38 1009.3
20260504203419 69 219 6.0 8.0 0.00 0.00 0.00 38 1009.4
20260504202915 68 183 5.0 7.0 0.00 0.00 0.00 37 1009.3
20260504202412 69 278 5.0 7.0 0.00 0.00 0.00 38 1009.4
20260504201908 69 248 3.0 4.0 0.00 0.00 0.00 37 1009.5
20260504201406 68 264 4.0 4.0 0.00 0.00 0.00 38 1009.5
20260504200903 68 270 9.0 13.0 0.00 0.00 0.00 37 1009.3
20260504200400 68 207 5.0 11.0 0.00 0.00 0.00 36 1009.4
20260504195857 68 298 6.0 7.0 0.00 0.00 0.00 35 1009.5
20260504195352 69 191 6.0 9.0 0.00 0.00 0.00 36 1009.3
20260504194849 69 250 5.0 9.0 0.00 0.00 0.00 35 1009.3
20260504194345 69 235 3.0 3.0 0.00 0.00 0.00 36 1009.5
20260504193841 69 264 4.0 6.0 0.00 0.00 0.00 35 1009.6
20260504193338 69 236 5.0 8.0 0.00 0.00 0.00 34 1009.2
20260504192837 69 232 5.0 8.0 0.00 0.00 0.00 33 1009.6
20260504192334 70 236 3.0 3.0 0.00 0.00 0.00 31 1009.4
20260504191833 71 218 4.0 8.0 0.00 0.00 0.00 34 1009.2
20260504191330 69 279 6.0 8.0 0.00 0.00 0.00 33 1009.3
20260504190825 69 243 5.0 6.0 0.00 0.00 0.00 31 1009.4
20260504190322 69 180 8.0 11.0 0.00 0.00 0.00 33 1009.5
20260504185818 69 237 5.0 8.0 0.00 0.00 0.00 31 1009.8
20260504185315 70 226 4.0 6.0 0.00 0.00 0.00 33 1009.5
20260504184811 70 271 4.0 4.0 0.00 0.00 0.00 32 1009.6
20260504184307 69 259 4.0 4.0 0.00 0.00 0.00 35 1009.7
20260504183803 69 229 7.0 8.0 0.00 0.00 0.00 30 1009.7
20260504183300 69 245 5.0 8.0 0.00 0.00 0.00 32 1009.6
20260504182758 70 246 3.0 4.0 0.00 0.00 0.00 31 1009.8
20260504182255 69 253 1.0 2.0 0.00 0.00 0.00 32 1009.8
20260504181753 69 208 6.0 7.0 0.00 0.00 0.00 31 1009.9
20260504181250 69 221 6.0 9.0 0.00 0.00 0.00 31 1009.9
20260504180749 69 208 5.0 8.0 0.00 0.00 0.00 32 1010.1
20260504180247 69 266 4.0 6.0 0.00 0.00 0.00 32 1010.4
20260504175744 69 263 9.0 13.0 0.00 0.00 0.00 30 1010.0
20260504175241 69 260 1.0 2.0 0.00 0.00 0.00 32 1010.1
20260504174739 68 266 3.0 4.0 0.00 0.00 0.00 33 1010.1
20260504174237 69 253 4.0 7.0 0.00 0.00 0.00 33 1010.1
20260504173733 69 271 5.0 9.0 0.00 0.00 0.00 32 1010.0
20260504173230 68 215 3.0 4.0 0.00 0.00 0.00 31 1010.1
20260504172727 68 278 6.0 8.0 0.00 0.00 0.00 35 1009.8
20260504172223 68 148 4.0 4.0 0.00 0.00 0.00 32 1009.9
20260504171720 68 231 6.0 8.0 0.00 0.00 0.00 31 1009.8
20260504171217 68 209 7.0 10.0 0.00 0.00 0.00 33 1010.2
20260504170713 68 256 5.0 7.0 0.00 0.00 0.00 31 1010.2
20260504170211 67 220 4.0 7.0 0.00 0.00 0.00 31 1010.3
20260504160129 68 207 4.0 6.0 0.00 0.00 0.00 34 1010.9
20260504151056 66 197 2.0 2.0 0.00 0.00 0.00 37 1011.4
20260504150554 65 235 3.0 4.0 0.00 0.00 0.00 36 1011.6
20260504141020 64 156 2.0 2.0 0.00 0.00 0.00 38 1012.1
20260504140516 64 244 4.0 6.0 0.00 0.00 0.00 38 1012.2
20260504130441 61 204 4.0 6.0 0.00 0.00 0.00 39 1012.6
20260504110328 39 159 0.0 0.0 0.00 0.00 0.00 85 1012.7
20260504100246 37 173 0.0 0.0 0.00 0.00 0.00 84 1012.6
20260504081639 41 180 0.0 0.0 0.00 0.00 0.00 76 1012.1
20260504081135 41 178 0.0 0.0 0.00 0.00 0.00 75 1012.2
20260504080632 41 156 0.0 0.0 0.00 0.00 0.00 71 1012.2
20260504080128 41 148 0.0 0.0 0.00 0.00 0.00 74 1012.2
20260504050444 38 168 0.0 0.0 0.00 0.00 0.00 74 1012.1
20260504045942 37 204 0.0 0.0 0.00 0.00 0.00 76 1012.1
20260504045437 37 187 0.0 0.0 0.00 0.00 0.00 79 1012.0
20260504044933 37 187 0.0 0.0 0.00 0.00 0.00 79 1012.1
20260504044431 36 195 0.0 0.0 0.00 0.00 0.00 80 1012.2
20260504043928 36 173 0.0 0.0 0.00 0.00 0.00 80 1012.0
20260504043425 36 166 0.0 0.0 0.00 0.00 0.00 79 1011.9
20260504042923 36 159 0.0 0.0 0.00 0.00 0.00 78 1012.2
20260504042419 37 169 0.0 0.0 0.00 0.00 0.00 78 1012.1
20260504041916 37 179 0.0 0.0 0.00 0.00 0.00 76 1012.2
20260504041412 37 233 0.0 1.0 0.00 0.00 0.00 74 1012.0
20260504040908 37 182 0.0 0.0 0.00 0.00 0.00 72 1012.1
20260504040406 37 188 0.0 1.0 0.00 0.00 0.00 74 1012.0
20260504035901 36 185 0.0 0.0 0.00 0.00 0.00 78 1012.0
20260504035359 36 172 0.0 0.0 0.00 0.00 0.00 76 1012.0
20260504034855 36 145 0.0 0.0 0.00 0.00 0.00 77 1011.8